カタログに戻る

SL-12 R/B(2)

運用中LEO
NORAD 15334·ROCKET BODY·🇷🇺 Russia

打ち上げ Sep 28, 1984 から Baikonur Cosmodrome

Loading…

次のパス (今後24時間)

TLE

最新Source: Space-Track

元期: Sep 14, 2026, 03:23 UTC

1 15334U 84106B   26257.14114137 -.00000210  00000-0 -82875-4 0  9998
2 15334  71.0022 152.4795 0005557 236.8967 123.1623 14.15674241 46504

AllMySatでSL-12 R/B(2)をリアルタイム追跡

Download on the App Store